Location: Newark
(46.2167°N, 5.8664°E)
Time: 18:09:01
(UTC+00:00)

N. Korean satellite - Pass Details

Date: 23 October 2019
Orbit: 456 x 506 km, 97.2° (Epoch: 14 November)

Event Time Altitude Azimuth Distance (km) Brightness Sun altitude
Rises 17:15:42 0° 191° (S) 2,464 10.4 -7.4°
Reaches altitude 10° 17:17:54 10° 203° (SSW) 1,599 9.6 -7.7°
Maximum altitude 17:20:54 28° 264° (W) 899 9.0 -8.3°
Drops below altitude 10° 17:23:57 10° 325° (NW) 1,627 9.6 -8.8°
Sets 17:26:14 0° 338° (NNW) 2,516 10.4 -9.2°
